Location: St. Louis
(38.6270°N, 90.1994°W)
Time: 00:45:06
(UTC-06:00)

Vanguard 2 - Pass Details

Date: 04 December 2021
Orbit: 553 x 2936 km, 32.9° (Epoch: 16 January)

Event Time Altitude Azimuth Distance (km) Brightness Sun altitude
Rises 18:18:19 0° 270° (W) 3,999 12.7 -18.8°
Reaches altitude 10° 18:21:03 10° 260° (W) 3,323 12.0 -19.3°
Maximum altitude 18:28:26 31° 202° (SSW) 2,756 10.6 -20.7°
Drops below altitude 10° 18:39:24 10° 148° (SSE) 4,986 11.4 -22.8°
Sets 18:44:40 0° 139° (SE) 6,325 11.9 -23.8°
